Current weather by "City, St" or "zip code"  
 

Current Conditions: Faith, SD

NULL


22.0 F

Last Updated on Oct 24 2020, 9:56 am MDT
Humidity: 89%
Wind Speed: E 16.1 mph
Barometer 30.11 in
Dewpoint: 19.0 F
Visibility: NULL mi
Precip: 00.01 in
Heat Index: NA
Wind Chill: 8 F
Current conditions at:

Faith, SD (KD07)

Lat: 45.03194 Lon: 102.01917

Local Radar Image active severe weather and emergency alerts image image weather storm and storm spotter reports image weather observation monitoring service image
Local
Radar
Active
Alerts
Storm Reports Obs
Monitoring

Sign-up For Email & Text Message Weather Alert Notification Services



Advertise Here

Observation History for Faith, SD


Time Wind
(mph)
Vis
(mi)
Weather Precip (in) Temperature (F) Relative
Humidity
Wind
Chill
(F)
Heat
Index
(F)
Pressure
Air Dwpt altimeter
(in)
sea level
(mb)
Rmks
9:56 am MDT E 16.1 NULL NULL 00.01 22.0 19.0 89% 8 NA 30.11 1024.1
8:56 am MDT E 15.0 G 26.5 NULL NULL -- 21.0 18.0 88% 7 NA 30.11 1024.1
7:56 am MDT E 15.0 NULL NULL -- 20.0 17.1 89% 6 NA 30.09 1023.6
6:56 am MDT E 16.1 G 26.5 NULL NULL -- 20.0 16.0 85% 6 NA 30.08 1023.2
5:56 am MDT E 16.1 G 26.5 NULL NULL -- 20.0 16.0 85% 6 NA 30.08 1023.4
4:56 am MDT SE 16.1 G 24.2 NULL NULL -- 19.0 15.1 84% 4 NA 30.09 1023.7
3:56 am MDT SE 21.9 G 28.8 NULL Breezy -- 19.0 14.0 81% 2 NA 30.11 1024.3
2:56 am MDT SE 18.4 G 32.2 NULL NULL 00.01 19.0 14.0 81% 4 NA 30.12 1024.7
1:56 am MDT SE 20.7 G 28.8 NULL Breezy -- 19.0 14.0 81% 3 NA 30.14 1025.5
12:56 am MDT E 11.5 NULL NULL -- 19.0 12.9 77% 7 NA 30.17 1026.4
11:56 pm MDT E 11.5 NULL NULL -- 19.0 14.0 81% 7 NA 30.20 1027.4
10:56 pm MDT SE 9.2 NULL NULL -- 19.0 14.0 81% 8 NA 30.23 1028.6
9:56 pm MDT SE 9.2 NULL NULL -- 19.0 15.1 84% 8 NA 30.24 1029.2
7:56 pm MDT SE 8.1 NULL NULL -- 20.0 14.0 78% 10 NA 30.27 1030.7
6:56 pm MDT S 10.4 NULL NULL -- 20.0 14.0 78% 9 NA 30.30 1031.8
5:56 pm MDT S 5.8 NULL NULL -- 19.0 12.9 77% 11 NA 30.33 1032.6
4:56 pm MDT S 5.8 NULL NULL -- 20.0 12.0 71% 12 NA 30.35 1032.9
3:56 pm MDT S 3.5 NULL NULL -- 21.0 6.1 52% NA NA 30.37 1033.0
2:56 pm MDT W 4.6 NULL NULL -- 22.0 9.0 57% 16 NA 30.39 1033.7
1:56 pm MDT W 5.8 NULL NULL -- 21.0 10.0 62% 13 NA 30.40 1034.2
12:56 pm MDT W 5.8 NULL NULL -- 20.0 12.0 71% 12 NA 30.44 1035.4
11:56 am MDT NW 4.6 NULL NULL -- 18.0 12.0 77% 11 NA 30.45 1036.0
10:56 am MDT NW 6.9 NULL NULL -- 16.0 10.0 77% 6 NA 30.48 1037.0

Regional Weather Observation


Buffalo, SD (K2WX)

NULL
32.0 F

Hettinger, Hettinger Municipal Airport, ND (KHEI)

Light Snow Fog/Mist
18.0 F

Philip, Philip Airport, SD (KPHP)

Light Snow Fog/Mist
24.0 F

Ellsworth Air Force Base, SD (KRCA)

Light Snow Fog/Mist
23.0 F

Rapid City, Rapid City Regional Airport, SD (KRAP)

Light Snow Fog/Mist
23.0 F

Spearfish / Clyde Ice, SD (KSPF)

Fog/Mist
19.0 F